Regional Weather Roundup
Issued by NWS

Home | Current Version | Previous Version | Graphics & Text | Print | Product List | Glossary On
Versions: 1 2 3 4 5 6 7 8 9 10 11 12 13 14 15 16 17 18 19 20 21 22 23 24 25 26 27 28 29 30 31 32 33 34 35 36 37 38 39 40 41 42 43 44 45 46 47 48 49 50
396
ASUS43 KIND 272109
RWRIN

WEATHER ROUNDUP FOR INDIANA
NATIONAL WEATHER SERVICE INDIANAPOLIS IN
500 PM EDT TUE SEP 27 2016

NOTE: "FAIR" INDICATES FEW OR NO CLOUDS BELOW 12,000 FEET WITH NO
SIGNIFICANT WEATHER AND/OR OBSTRUCTIONS TO VISIBILITY.

* - STATION DOES NOT REPORT WEATHER SUCH AS PRECIPITATION OR FOG.

+ - STATION NOT QUALITY CONTROLLED BY THE NATIONAL WEATHER SERVICE.
    USE DATA WITH CAUTION...ESPECIALLY DEWPOINT AND RELATIVE
    HUMIDITY OBSERVATIONS.

INZ001>003-010>013-019-020-272200-
NORTHWEST INDIANA

CITY           SKY/WX    TMP DP  RH WIND       PRES   REMARKS
GARY /AIRPORT/ MOSUNNY   72  28  20 W21G32    29.75F
KNOX *+        SUNNY    N/A N/A N/A W21G28    29.75F
LA PORTE +     MOSUNNY   70  31  23 W14G24    29.76S
MICHIGAN CITY+ MOSUNNY   68  36  30 MISG      29.75F
MONTICELLO +   SUNNY     74  13  10 W17G24    29.77F
RENSSELAER +   SUNNY     73  18  12 SW22G28   29.77F
VALPARAISO     SUNNY     70  32  24 W17G30    29.76F

$$

LMZ046-743>745-272200-
SOUTHERN LAKE MICHIGAN

STATION/POSITION TIME  TEMP    WIND        PRES    WAVE
                       AIR SEA DIR/SP/G            HT
                 (UTC) (F)     (DEG/KT/KT) (MB)    (FT)
BURNS HARBOR     2002   67     260/ 18     1007.8S
MICHIGAN CITY    2000   66     240/ 24/ 27   N/A
5NW MICH CITY    2100   68 67  280/ 16/ 21   N/A     5

$$

INZ004-005-014>016-021>024-272200-
NORTH CENTRAL INDIANA

CITY           SKY/WX    TMP DP  RH WIND       PRES   REMARKS
GOSHEN         LGT RAIN  69  33  26 W17G24    29.75S
LOGANSPORT +   SUNNY     72  32  23 W23G33    29.78F
PERU/GRISSOM   SUNNY     73  31  21 W24G32    29.76F
ROCHESTER +    SUNNY     75  30  19 W15G23    29.76S
SOUTH BEND     SUNNY     69  34  27 W16G23    29.75F
WARSAW +       SUNNY     70  16  12 W21       29.75S

$$

INZ006>009-017-018-025>027-272200-
NORTHEAST INDIANA

CITY           SKY/WX    TMP DP  RH WIND       PRES   REMARKS
ANGOLA *+        N/A    N/A N/A N/A W9        29.75F
AUBURN +       SUNNY     72  32  23 W14G20    29.77S
FORT WAYNE     MOSUNNY   74  29  19 W18G28    29.76F
HUNTINGTON +   SUNNY     72  31  22 W13G30    29.76F
KENDALLVILLE + SUNNY     69  34  27 W16G25    29.76S

$$

INZ028-029-035-036-043>045-051>053-272200-
WEST CENTRAL INDIANA

CITY           SKY/WX    TMP DP  RH WIND       PRES   REMARKS
CRAWFORDSVL +  SUNNY     74  39  28 SW13G22   29.81F
GREENCASTLE +  SUNNY     73  46  38 W6        29.84S
LAFAYETTE      SUNNY     73  35  25 W14G26    29.78F
TERRE HAUTE    SUNNY     76  39  26 SW15      29.83F

$$

INZ030>032-037>040-046>048-054>057-064-065-272200-
CENTRAL INDIANA

CITY           SKY/WX    TMP DP  RH WIND       PRES   REMARKS
COLUMBUS       MOSUNNY   73  48  40 SW12      29.85F
FRANKFORT +    SUNNY     76  33  20 W18G25    29.82F
GREENWOOD *+   SUNNY     75  46  35 SW14G21   29.83F
INDIANAPOLIS   MOSUNNY   73  43  33 W21       29.82F
-EAGLE CREEK   SUNNY     75  39  27 SW10G17   29.81F
MARION +       SUNNY     74  32  21 W21G26    29.79F
MT COMFORT *+  MOSUNNY   75  43  31 SW16G24   29.82F
SHELBYVILLE    MOSUNNY   76  46  34 W17G25    29.83F
ZIONSVILLE +   SUNNY     73  36  26 W17G25    29.81F

$$

INZ033-034-041-042-049-050-058-059-272200-
EAST CENTRAL INDIANA

CITY           SKY/WX    TMP DP  RH WIND       PRES   REMARKS
MUNCIE         SUNNY     76  33  21 W15G28    29.79F

$$

INZ060-061-067>069-081>083-085>088-272200-
SOUTHWEST INDIANA

CITY           SKY/WX    TMP DP  RH WIND       PRES   REMARKS
EVANSVILLE     SUNNY     78  46  32 W15       29.89F
HUNTINGBURG *+   N/A     77  45  31 W18G25    29.89F
WASHINGTON +   SUNNY     76  51  41 MISG      29.86F

$$

INZ062-063-066-070>080-084-089>092-272200-
SOUTH CENTRAL AND SOUTHEAST INDIANA

CITY           SKY/WX    TMP DP  RH WIND       PRES   REMARKS
BEDFORD +      SUNNY    N/A N/A N/A SW14G21   29.86F
BLOOMINGTON    SUNNY     76  46  34 SW15G23   29.85F
MADISON *+     SUNNY     73  37  27 SW14      29.89F
NORTH VERNON + SUNNY     75  52  43 SW17G24   29.87F
SEYMOUR +      MOSUNNY   79  48  34 W20G28    29.86F

$$





USA.gov is the U.S. government's official web portal to all federal, state and local government web resources and services.